Location: Bijele Vode
(45.2833°N, 16.2000°E)
Time: 00:49:39
(UTC+00:00)

Lacrosse 5 rocket - Pass Details

Date: 18 January 2021
Orbit: 465 x 630 km, 57.0° (Epoch: 06 March)

Event Time Altitude Azimuth Distance (km) Brightness Sun altitude
Exits shadow 05:28:20 11° 319° (NW) 1,662 3.3 -10.6°
Maximum altitude 05:31:55 47° 34° (NE) 669 1.9 -10.0°
Drops below altitude 10° 05:35:31 10° 109° (ESE) 1,662 5.5 -9.4°
Sets 05:37:41 0° 116° (ESE) 2,520 7.0 -9.0°
